Regional Weather Roundup
Issued by NWS

Current Version | Previous Version | Text Only | Print | Product List | Glossary On
Versions: 1 2 3 4 5 6 7 8 9 10 11 12 13 14 15 16 17 18 19 20 21 22 23 24 25 26 27 28 29 30 31 32 33 34 35 36 37 38 39 40 41 42 43 44 45 46 47 48 49 50
000
ASUS43 KDTX 242310
RWRMI
MICHIGAN HOURLY REGIONAL WEATHER ROUNDUP
NATIONAL WEATHER SERVICE DETROIT/PONTIAC MI
ISSUED BY NATIONAL WEATHER SERVICE GRAND RAPIDS MI
700 PM EDT MON JUL 24 2017

NOTE: "FAIR" INDICATES FEW OR NO CLOUDS BELOW 12,000 FEET WITH NO
SIGNIFICANT WEATHER AND/OR OBSTRUCTION TO VISIBILITY.

MIZ047>049-052>055-059>063-066>070-074>076-081>083-250000-
SOUTHEAST LOWER MICHIGAN

CITY           SKY/WX    TMP DP  RH WIND       PRES   REMARKS
ADRIAN         FAIR      72  55  55 NE7       30.05R
ALMA           FAIR      76  48  37 NE7       30.04S
ANN ARBOR      FAIR      74  55  51 N9        30.04R
BAD AXE        FAIR      66  53  63 N12       30.05R
DETROIT CITY   FAIR      71  53  52 NE10      30.03R
DETROIT        PTSUNNY   74  53  48 N9        30.03R
FLINT          FAIR      72  54  53 N9        30.05R
GROSSE ILE     PTSUNNY   74  53  47 NE7       30.02R
HILLSDALE      CLOUDY    70  54  56 NE6       30.06R
HOWELL         FAIR      72  52  50 NE6       30.05R

CITY           SKY/WX    TMP DP  RH WIND       PRES   REMARKS
JACKSON        FAIR      71  51  49 N9        30.06R
LANSING        FAIR      73  53  49 E3        30.05R
MASON          FAIR      73  56  55 NE3       30.06R
MONROE         PTSUNNY   73  57  57 NE6       30.02R
MT. CLEMENS    MOSUNNY   70  55  58 N14       30.02R
PONTIAC        FAIR      70  50  49 N12G21    30.04R
PORT HOPE        N/A     67  58  72 N12G17    30.03R
PORT HURON     PTSUNNY   70  55  60 N8        30.03R
TRI CITIES     FAIR      72  58  61 NE9       30.05R
YPSILANTI      PTSUNNY   76  54  46 N12       30.04R
$$
MIZ043>046-050>051-056>058-064>065-071>073-077>080-250000-
SOUTHWEST LOWER MICHIGAN

CITY           SKY/WX    TMP DP  RH WIND       PRES   REMARKS
BATTLE CREEK   FAIR      74  55  51 NE5       30.06R
BENTON HARBOR  FAIR      72  60  66 VRB6      30.06R
BIG RAPIDS     FAIR      75  50  41 E7        30.04S
COLDWATER      FAIR      69  57  66 NE5       30.06R
HOLLAND        FAIR      73  59  61 W8        30.06R
GRAND RAPIDS   FAIR      77  54  44 VRB3      30.04R
KALAMAZOO      FAIR      76  53  44 NE6       30.06R
MARSHALL       FAIR      74  54  49 CALM      30.05S
MOUNT PLEASANT FAIR      77  46  33 NE5       30.03S
MUSKEGON       FAIR      76  58  53 W9        30.04R
STURGIS        FAIR      71  58  62 E6        30.05R
$$
MIZ016>042-250000-
NORTHERN LOWER MICHIGAN

CITY           SKY/WX    TMP DP  RH WIND       PRES   REMARKS
ALPENA         FAIR      74  51  44 N10       30.05R
BEAVER ISLAND  FAIR      73  48  40 N6        30.08R
BELLAIRE       FAIR      73  47  38 N3        30.06R
CADILLAC       FAIR      75  51  43 NE3       30.06R
CHARLEVOIX     FAIR      70  51  50 NW7       30.10R
GAYLORD        FAIR      74  43  32 NE8       30.07R
HOUGHTON LAKE  FAIR      75  49  39 N6        30.06R
MANISTEE       FAIR      72  52  49 NW13      30.06R
OSCODA         FAIR      73  50  44 NE10G16   30.04R
PELLSTON       FAIR      75  49  39 N8        30.06R
TRAVERSE CITY  FAIR      73  48  41 N9        30.05R
LUDINGTON      CLOUDY    69  55  60 NW13      30.06R
$$
MIZ007>008-015-250000-
EASTERN UPPER MICHIGAN

CITY           SKY/WX    TMP DP  RH WIND       PRES   REMARKS
KINROSS        FAIR      68  51  54 N14       30.06S
MACKINAC ISLAN FAIR      72  52  48 N6        30.06R
NEWBERRY       FAIR      68  50  53 N6        30.08S
S. S. MARIE    FAIR      69  51  52 NW10      30.05S
$$
MIZ004>006-011>014-085-250000-
CENTRAL UPPER MICHIGAN

CITY           SKY/WX    TMP DP  RH WIND       PRES   REMARKS
MANISTIQUE     FAIR      73  49  43 NE5       30.07R
ESCANABA       FAIR      72  56  57 S8        30.08R
MENOMINEE      FAIR      74  52  46 SE5       30.09S
SAWYER-GWINN   SUNNY     72  50  46 E7        30.09S
$$
MIZ001>003-009>011-084-250000-
WESTERN UPPER MICHIGAN

CITY           SKY/WX    TMP DP  RH WIND       PRES   REMARKS
IRON MOUNTAIN  FAIR      77  50  38 S5        30.07R
HOUGHTON       FAIR      75  51  43 NW9       30.06S
COPPER HARBOR    N/A     65  47  52 N7        30.06S
IRONWOOD       FAIR      73  56  54 NE7       30.06F
$$

ABBREVIATIONS USED IN REMARKS
   TC - TEMPERATURE IN CELSIUS
  WCI - WIND CHILL INDEX
   HX - HEAT INDEX
  VSB - VISIBILITY





USA.gov is the U.S. government's official web portal to all federal, state and local government web resources and services.